Вернуться в каталог

STARLINK-34089

АктивенСвязьVLEO
NORAD 64039·PAYLOAD·🇺🇸 United States

Запущен May 16, 2025 с Vandenberg Space Force Base

Loading…

Ближайшие Пролёты (ближайшие 24 часа)

TLE

СвежийSource: CelesTrak SupGP

Эпоха: Sep 15, 2026, 03:37 UTC

1 64039C 25102T   26258.15118056  .00087624  00000+0  30514-2 0  2581
2 64039  70.0010 354.9436 0003499 271.0443 211.2442 15.29499470    19

Отслеживайте STARLINK-34089 в реальном времени с AllMySat

Download on the App Store